Theta_e
324 324 323 322 322 321 320 323 322 324 320 321 315 318 319 323 324 326 325 324 324 323 324 325 324 325 327 327 324 321 318 316 320 322 322 321 319 319 317 320 321 316 317 322
322 322 322 320 320 318 319 323 325 323 321 320 318 318 320 322 323 323 324 323 322 323 324 327 325 326 327 327 325 328 320 318 321 323 323 323 324 318 316 315 315 319 322 323
321 321 321 320 317 316 319 321 319 322 323 319 318 319 320 320 321 322 322 320 322 323 324 322 326 326 325 324 324 327 327 316 320 324 324 323 326 323 318 319 320 319 320 323
320 321 320 319 316 317 318 319 314 315 316 316 316 317 318 320 320 320 319 320 321 324 324 323 324 323 321 322 323 323 321 325 324 322 321 323 325 326 323 322 322 325 324 323
320 321 319 318 316 315 317 317 316 317 315 316 317 314 318 319 319 319 319 320 319 321 322 321 323 322 321 322 321 322 318 326 325 327 328 328 327 326 325 324 323 322 324 324
320 320 319 318 315 315 314 316 316 317 314 314 316 316 318 319 317 319 319 318 318 320 319 318 319 319 320 320 321 320 320 321 323 327 326 327 331 327 326 326 328 325 326 325
320 319 319 316 313 312 313 313 316 315 312 313 315 316 317 317 317 316 318 318 317 318 319 320 319 318 317 316 315 316 318 319 321 324 325 331 328 325 326 329 332 329 337 339
320 319 318 316 313 312 312 313 314 314 311 313 315 315 316 316 316 315 316 317 315 318 318 316 316 316 316 317 316 316 312 316 321 324 325 325 327 328 329 327 328 331 330 337
319 318 318 316 312 312 311 312 313 313 313 309 315 314 314 312 312 312 315 316 313 317 312 315 319 319 320 320 317 315 313 314 319 322 326 328 325 327 328 327 328 330 331 331
318 318 318 315 312 312 311 312 312 313 314 313 314 313 312 313 313 310 312 313 314 316 312 315 316 317 317 319 322 320 317 317 320 319 325 323 323 324 326 333 328 331 331 331
317 318 317 313 312 311 309 309 310 311 311 310 311 313 312 312 313 311 313 311 312 312 314 315 316 317 317 319 319 319 317 320 320 320 324 328 324 323 328 326 328 328 328 329
317 316 314 312 311 309 307 306 306 308 309 308 309 312 314 313 313 313 313 312 311 313 310 311 312 316 314 315 319 314 318 315 317 319 322 320 321 322 322 324 326 326 327 326
315 313 311 310 309 307 305 309 311 312 311 311 314 316 314 316 316 315 314 314 313 314 314 312 311 316 312 316 315 316 314 315 316 318 317 319 319 321 320 320 322 323 324 326
313 310 310 308 306 304 309 311 312 312 311 310 313 315 312 316 316 316 316 316 315 314 315 314 309 313 313 312 313 313 314 314 315 314 315 318 319 319 319 319 319 321 323 323
310 309 308 306 304 306 311 312 312 312 309 309 309 314 315 317 317 317 316 316 315 314 314 311 311 312 311 310 310 311 314 314 316 317 317 316 318 321 321 321 322 323 323 323
308 307 305 304 305 310 312 313 313 309 310 310 306 312 318 320 319 317 316 316 315 314 315 313 314 316 315 316 313 314 315 317 320 320 320 320 320 320 320 320 320 321 321 322
307 305 304 307 310 307 309 312 311 310 310 311 309 310 318 319 319 319 318 318 317 316 316 314 314 316 316 313 315 315 320 320 320 319 320 319 320 320 320 320 321 321 321 321
306 305 307 309 312 312 312 311 312 312 310 311 307 309 315 318 318 319 319 321 320 319 319 317 316 318 315 316 316 319 319 320 320 321 321 321 321 321 322 322 321 321 321 322
305 308 311 312 312 313 313 312 313 312 310 311 310 309 313 317 317 319 319 319 316 319 317 318 317 315 320 320 321 319 320 321 321 320 321 322 322 322 322 322 322 321 320 321
308 310 312 314 313 313 313 313 313 313 312 311 310 311 311 316 317 317 318 317 312 316 315 318 317 319 320 321 320 321 321 321 321 321 321 323 324 325 324 324 323 323 321 320
311 312 312 312 311 313 313 315 314 313 313 312 314 313 312 316 317 314 317 313 312 315 315 317 317 317 320 320 321 321 322 323 324 324 324 324 326 325 326 326 325 324 324 324
308 310 309 310 312 313 312 310 312 312 314 315 315 317 317 318 320 318 315 314 311 316 314 317 320 319 320 321 321 322 323 323 323 324 324 324 326 326 324 324 326 325 324 325
305 307 311 312 311 308 313 314 313 313 317 318 319 315 320 320 318 315 312 315 314 314 314 320 319 320 321 321 321 322 322 323 323 322 322 322 321 321 320 320 321 322 323 324
309 310 304 308 309 309 309 311 312 317 318 318 316 316 318 318 318 317 317 313 314 320 320 320 319 320 320 322 322 321 321 321 321 320 321 321 319 318 318 317 318 319 320 321
310 311 308 308 309 310 312 313 313 314 316 316 316 317 318 318 319 317 315 320 323 322 322 320 321 318 320 321 321 320 319 319 319 320 320 319 317 317 317 318 320 323 325 325
310 311 311 312 310 311 312 312 314 315 316 316 316 316 316 321 318 321 322 324 323 321 320 320 321 318 319 320 317 314 313 313 314 316 318 319 319 317 317 318 320 321 323 323
309 309 311 311 311 311 311 312 312 313 316 311 312 314 319 317 321 321 317 320 320 319 319 321 321 320 320 317 314 311 310 310 309 311 312 316 319 320 320 319 318 318 319 320
Wind_Speed
28 30 30 30 30 27 19 4 3 6 9 3 2 2 3 5 5 7 2 1 4 4 1 2 3 4 1 13 2 6 5 5 6 12 2 3 5 7 5 5 5 2 3 8
30 29 27 27 26 25 21 5 3 4 3 3 3 5 4 3 6 6 5 5 4 4 3 2 1 3 2 13 5 2 4 2 3 10 5 1 5 5 5 5 4 7 6 7
29 27 26 25 23 20 14 4 2 4 3 6 4 4 4 6 10 2 4 3 3 6 7 5 3 6 2 8 8 4 5 3 6 6 7 2 4 5 6 6 4 6 7 7
27 26 25 23 21 17 10 6 3 3 2 4 3 1 3 4 7 7 13 5 4 0 3 4 4 4 7 6 7 5 4 3 2 6 8 5 6 6 8 6 5 7 7 9
23 24 23 22 20 15 11 4 4 3 2 3 1 3 3 4 6 2 4 4 8 2 1 1 3 1 2 6 4 4 4 2 1 5 5 6 6 7 6 6 4 6 4 6
19 21 20 21 19 16 8 8 6 2 4 4 2 1 3 4 6 1 7 4 3 2 5 20 23 19 16 9 4 3 2 3 2 5 4 7 5 5 5 4 1 2 6 7
15 17 16 17 18 17 14 12 6 4 2 2 2 4 6 5 4 3 9 6 4 7 23 15 9 13 12 13 14 9 3 5 4 5 2 4 6 5 5 2 4 6 4 4
13 15 13 14 14 14 11 12 8 5 1 2 2 7 4 9 10 3 4 5 14 17 10 3 5 5 7 4 2 3 8 4 3 4 6 3 2 3 1 3 1 3 3 4
13 13 11 12 11 11 10 8 9 5 2 2 0 3 3 2 3 6 3 11 13 12 3 3 3 3 2 5 9 5 5 3 3 1 4 8 3 5 9 2 4 3 4 5
12 10 9 10 9 10 10 6 7 4 3 2 3 2 1 3 2 2 5 13 8 13 4 2 2 3 1 2 3 5 4 3 2 1 4 4 4 13 7 4 4 4 7 3
10 8 9 8 8 9 9 7 7 6 4 8 5 4 4 5 4 2 7 4 5 5 5 3 2 1 2 3 3 1 1 1 2 1 2 2 16 6 3 3 4 5 8 6
7 8 6 7 9 10 9 7 8 8 7 6 12 10 2 5 7 8 3 1 3 1 3 1 1 2 2 1 3 3 1 4 2 5 4 4 8 4 12 10 11 10 12 10
7 5 6 9 10 9 8 5 7 10 5 7 1 3 4 3 3 4 3 2 1 1 2 2 1 3 3 2 4 2 4 2 1 4 3 5 15 8 16 18 19 16 13 12
5 5 8 9 9 7 5 5 8 11 5 2 2 3 1 3 5 6 9 11 8 7 10 3 2 2 5 3 4 3 5 4 3 4 8 12 7 14 27 25 24 21 18 15
4 7 9 9 7 4 1 3 6 11 8 3 9 3 6 1 4 4 10 12 16 12 3 3 3 4 1 2 1 3 5 6 3 7 13 8 19 25 25 26 25 24 23 25
5 8 8 6 3 0 1 2 3 9 11 4 3 4 4 6 2 6 9 11 13 10 5 5 4 6 4 2 3 6 6 11 10 8 17 24 27 29 27 26 25 28 31 33
6 7 5 1 3 1 0 2 4 7 9 4 6 9 3 8 4 4 6 9 7 7 4 2 3 3 3 1 3 5 15 21 24 26 30 29 29 27 29 34 38 38 36 38
6 3 0 2 2 3 2 4 6 7 3 2 1 5 6 6 3 4 4 4 3 1 3 2 3 6 1 2 5 22 27 29 32 28 30 30 35 36 38 39 37 37 37 35
3 2 2 1 1 0 3 6 4 4 2 1 1 1 3 6 2 3 3 4 2 4 1 2 3 2 2 5 16 28 32 25 33 40 41 40 38 38 36 35 33 31 34 36
3 2 2 2 1 4 5 2 2 2 2 3 3 3 3 4 4 3 6 3 1 3 2 8 1 3 11 13 26 32 36 39 37 33 34 30 31 30 30 32 33 32 31 33
2 2 2 2 3 2 2 2 1 1 2 5 4 7 3 2 0 2 3 0 2 2 3 2 2 3 5 27 34 36 36 35 31 30 31 28 25 24 27 35 34 32 32 31
2 2 3 3 2 2 0 2 2 3 4 4 4 2 4 2 2 1 2 1 2 3 7 2 3 3 24 37 40 40 33 28 28 26 26 27 22 21 26 24 22 27 28 27
3 3 2 2 3 1 4 5 2 2 4 5 4 1 2 2 1 3 2 2 3 6 3 2 3 18 34 38 38 36 31 23 22 26 26 25 26 26 25 24 21 19 19 21
3 3 3 4 4 4 5 4 3 2 4 4 3 1 2 2 1 2 1 2 1 3 4 3 3 26 32 37 35 30 28 28 26 26 29 31 29 30 27 26 22 22 26 25
3 4 4 5 9 7 5 8 9 6 6 4 1 1 1 1 1 0 1 1 2 2 2 2 17 24 28 30 30 26 28 30 30 29 31 33 31 28 28 27 24 20 18 14
4 6 4 7 3 4 3 3 8 2 5 3 1 2 0 3 2 2 1 1 1 3 3 10 12 18 25 25 24 25 27 29 32 32 31 34 37 31 32 32 27 25 23 20
4 6 10 14 15 12 10 5 4 3 7 3 3 1 2 2 2 0 2 3 3 5 10 7 7 11 19 22 21 24 26 28 29 31 36 36 34 35 39 38 34 31 29 23
Wind_Direction
345 344 346 347 345 350 359 34 66 136 147 55 43 133 208 315 297 357 320 109 224 229 250 223 229 172 106 353 165 152 216 162 239 235 242 191 190 201 156 132 236 148 152 273
345 347 350 351 351 353 360 21 69 142 48 96 357 320 318 285 341 351 351 0 23 355 24 314 26 17 85 24 50 115 177 229 335 331 355 325 202 183 139 110 87 190 144 261
348 350 355 357 357 358 4 13 49 58 87 68 104 18 346 327 346 84 34 7 49 25 21 31 349 348 358 348 21 17 164 153 183 205 229 245 263 197 172 139 134 173 215 260
347 352 358 3 3 7 13 34 55 41 351 15 30 55 358 343 353 359 26 25 46 23 41 357 3 354 332 343 1 30 90 226 215 266 270 271 254 229 172 204 209 161 215 193
345 350 358 6 9 13 36 53 31 21 42 329 348 355 37 5 325 348 351 42 321 346 354 176 268 239 218 250 317 30 352 255 344 289 343 346 282 271 256 242 141 296 158 252
343 349 357 3 14 23 47 37 22 20 6 1 76 339 323 335 357 331 73 348 339 5 348 316 288 274 270 251 223 233 205 157 71 259 324 326 301 265 281 244 353 216 177 232
342 349 359 3 10 22 36 31 23 17 314 50 78 339 337 335 331 262 310 10 24 320 316 305 281 264 269 266 256 232 222 169 159 229 360 242 249 304 206 239 73 18 356 331
342 348 358 3 9 12 17 25 28 19 5 315 355 355 332 327 332 301 295 339 331 321 314 12 2 333 358 314 259 255 199 141 240 181 196 284 282 227 127 119 158 340 0 20
338 347 355 358 4 4 1 11 19 4 24 258 103 335 341 325 323 335 297 336 341 353 60 79 165 233 247 315 329 54 68 91 154 128 193 210 263 331 346 277 251 39 356 319
333 341 348 350 355 356 356 352 353 352 306 244 189 235 270 315 333 257 308 341 344 3 26 64 169 261 279 270 292 331 346 1 160 262 242 308 296 305 325 169 276 0 34 20
327 331 339 346 348 348 347 327 322 333 292 285 246 208 245 293 262 202 327 6 358 19 45 44 301 283 297 331 276 310 149 98 301 337 260 246 350 3 60 295 320 329 338 346
332 331 337 342 342 341 340 337 334 325 278 266 289 286 292 287 274 264 304 258 264 24 70 358 302 325 345 188 294 351 299 168 227 175 226 265 11 9 21 357 332 328 317 319
325 334 341 335 332 339 350 11 359 341 311 307 254 161 350 49 88 194 229 259 270 23 335 204 191 277 133 266 254 300 319 156 226 2 255 257 324 294 356 349 346 337 328 318
321 331 331 326 329 340 1 24 14 15 338 338 219 230 348 249 288 262 256 262 267 285 307 248 182 212 193 236 249 192 244 347 256 269 291 307 313 304 316 317 317 314 308 319
308 322 325 327 331 347 75 25 18 14 14 297 302 358 148 261 302 283 244 258 259 271 235 173 230 235 164 234 29 262 213 216 198 262 277 287 290 301 305 309 308 307 298 300
305 321 326 334 341 171 134 318 2 1 360 330 333 322 40 37 315 278 254 262 265 236 229 218 236 245 225 252 236 257 295 309 295 277 288 299 294 288 288 290 294 293 290 287
308 318 328 33 51 124 21 26 342 344 342 336 315 329 3 10 10 341 262 264 257 245 252 245 280 290 213 335 259 327 327 313 316 303 302 287 287 284 287 284 287 286 283 278
306 307 88 143 103 115 61 341 316 309 305 322 12 283 323 359 328 319 330 307 296 334 300 298 337 302 262 283 308 318 309 306 303 308 305 288 287 286 285 284 282 282 279 275
275 199 185 175 125 214 313 318 305 324 232 261 183 189 267 337 318 316 329 346 355 328 357 298 351 323 275 240 275 289 300 298 292 298 302 299 288 287 284 282 280 271 268 275
206 218 221 207 232 298 307 291 264 252 228 225 233 224 267 321 334 355 355 14 16 342 289 316 187 244 256 301 311 306 303 307 301 294 293 293 296 295 294 277 275 275 273 270
215 219 220 225 266 286 262 264 240 246 264 213 233 226 269 296 14 249 8 348 340 4 293 43 307 287 274 324 325 322 322 323 324 315 312 308 310 306 309 301 280 274 277 272
210 241 253 223 231 234 277 254 276 214 235 211 199 242 240 262 253 113 359 81 26 266 332 12 296 267 322 329 328 331 338 344 340 342 327 336 335 313 322 333 308 286 285 277
255 211 222 210 198 45 208 202 239 252 209 204 197 246 205 202 215 91 79 45 243 321 21 275 249 313 328 331 336 346 0 1 3 4 7 359 349 341 335 327 310 302 292 283
206 200 287 187 208 235 199 198 200 225 219 202 246 221 182 188 154 142 76 236 37 330 353 312 293 329 342 347 353 10 6 4 4 1 359 355 350 350 349 343 333 317 305 299
217 204 231 223 238 256 258 258 271 265 262 219 159 109 180 187 154 174 146 227 238 167 257 240 330 350 2 10 14 16 16 16 14 9 9 6 3 5 9 11 12 7 349 331
227 229 256 241 276 274 262 301 262 241 230 195 178 107 137 207 161 175 254 271 15 277 231 307 339 4 11 11 16 20 22 23 22 20 18 17 22 22 24 28 33 36 39 43
230 245 245 259 281 272 276 270 278 255 183 172 132 155 215 93 127 266 162 213 220 288 310 308 304 348 8 11 15 19 19 19 18 19 24 28 29 35 41 40 35 39 38 32